STPSAT-3

Last updated on July 6, 2021, 3:44 p.m. UTC

1 39380U 13064A   21187.04516036  .00001392  00000-0  41412-4 0  9992
2 39380  40.5006 314.0959 0004304 291.1347  68.9007 15.38759944427513
UTC
Height (km)
Latitude
Longitude
Inclination
Orbital Period
UTC large
Height (km)
Speed (km/s)
/
Latitude / Longitude
Inclination (degrees)
Orbital Period (minutes)
Azimuth
Elevation
Range (km)
Doppler Factor
iOS Compass Heading
iOS Angle